| time (UTC) | temp C | wind direction | speed KPH | gust KPH | rain 1hr cm | rain 24hr cm | rain mn cm | humidity % | barometer mb |
| 20260507021500 | 6 | 55 | 6.4 | 6.4 | 0.00 | 0.00 | 0.00 | 99 | |
| 20260507020500 | 6 | 8 | 3.2 | 8.0 | 0.00 | 0.00 | 0.00 | 99 | |
| 20260507015440 | 6 | 27 | 6.4 | 6.4 | 0.00 | 0.00 | 0.00 | 99 | |
| 20260507014440 | 6 | 65 | 3.2 | 3.2 | 0.00 | 0.00 | 0.00 | 99 | |
| 20260507013420 | 6 | 53 | 8.0 | 11.3 | 0.00 | 0.00 | 0.00 | 99 | |
| 20260507012420 | 6 | 35 | 3.2 | 4.8 | 0.00 | 0.03 | 0.00 | 99 | |
| 20260507011400 | 6 | 33 | 3.2 | 12.9 | 0.00 | 0.05 | 0.00 | 99 | |
| 20260507010400 | 6 | 296 | 3.2 | 6.4 | 0.00 | 0.08 | 0.00 | 99 | |
| 20260507005400 | 6 | 26 | 6.4 | 6.4 | 0.00 | 0.08 | 0.00 | 99 | |
| 20260507004340 | 6 | 46 | 6.4 | 8.0 | 0.00 | 0.08 | 0.00 | 99 | |
| 20260507003340 | 6 | 61 | 3.2 | 4.8 | 0.00 | 0.08 | 0.00 | 99 | |
| 20260507002320 | 6 | 21 | 9.7 | 9.7 | 0.00 | 0.08 | 0.00 | 99 | |
| 20260507001320 | 6 | 49 | 6.4 | 8.0 | 0.00 | 0.08 | 0.00 | 99 | |
| 20260507000321 | 6 | 47 | 8.0 | 11.3 | 0.00 | 0.08 | 0.00 | 99 | |
| 20260506235300 | 6 | 56 | 8.0 | 14.5 | 0.00 | 0.08 | 0.00 | 99 | |
| 20260506234300 | 6 | 53 | 4.8 | 8.0 | 0.00 | 0.08 | 0.00 | 99 | |
| 20260506233240 | 6 | 46 | 4.8 | 6.4 | 0.00 | 0.08 | 0.00 | 99 | |
| 20260506232240 | 6 | 351 | 6.4 | 8.0 | 0.00 | 0.08 | 0.00 | 99 | |
| 20260506231240 | 6 | 23 | 3.2 | 4.8 | 0.00 | 0.08 | 0.00 | 99 | |
| 20260506230222 | 6 | 46 | 3.2 | 3.2 | 0.00 | 0.08 | 0.00 | 99 | |
| 20260506225221 | 6 | 306 | 9.7 | 11.3 | 0.00 | 0.08 | 0.00 | 99 | |
| 20260506224200 | 6 | 350 | 4.8 | 6.4 | 0.00 | 0.08 | 0.00 | 99 | |
| 20260506223200 | 6 | 53 | 8.0 | 8.0 | 0.00 | 0.08 | 0.00 | 99 | |
| 20260506222200 | 6 | 41 | 3.2 | 3.2 | 0.00 | 0.08 | 0.00 | 99 | |
| 20260506221140 | 6 | 51 | 8.0 | 9.7 | 0.00 | 0.08 | 0.00 | 99 | |
| 20260506220140 | 6 | 64 | 4.8 | 6.4 | 0.00 | 0.08 | 0.00 | 99 | |
| 20260506215120 | 6 | 32 | 8.0 | 11.3 | 0.00 | 0.08 | 0.08 | 99 | |
| 20260506214120 | 6 | 1 | 4.8 | 6.4 | 0.00 | 0.08 | 0.08 | 99 | |
| 20260506213120 | 6 | 26 | 4.8 | 4.8 | 0.00 | 0.08 | 0.08 | 99 | |
| 20260506212100 | 6 | 38 | 4.8 | 8.0 | 0.00 | 0.08 | 0.08 | 99 | |
| 20260506211100 | 6 | 43 | 4.8 | 6.4 | 0.00 | 0.08 | 0.08 | 99 | |
| 20260506210040 | 6 | 345 | 1.6 | 3.2 | 0.00 | 0.08 | 0.08 | 99 | |
| 20260506205040 | 6 | 8 | 4.8 | 6.4 | 0.00 | 0.08 | 0.08 | 99 | |
| 20260506204040 | 7 | 1 | 6.4 | 8.0 | 0.00 | 0.08 | 0.08 | 99 | |
| 20260506203020 | 7 | 0 | 6.4 | 6.4 | 0.00 | 0.08 | 0.08 | 99 | |
| 20260506202020 | 7 | 3 | 6.4 | 6.4 | 0.00 | 0.08 | 0.08 | 99 | |
| 20260506201020 | 7 | 26 | 6.4 | 12.9 | 0.00 | 0.08 | 0.08 | 99 | |
| 20260506200000 | 7 | 25 | 8.0 | 9.7 | 0.00 | 0.08 | 0.08 | 99 | |
| 20260506195000 | 7 | 33 | 6.4 | 9.7 | 0.00 | 0.08 | 0.08 | 99 | |
| 20260506193940 | 7 | 2 | 3.2 | 3.2 | 0.00 | 0.08 | 0.08 | 99 | |
| 20260506192940 | 7 | 9 | 1.6 | 3.2 | 0.00 | 0.08 | 0.08 | 99 | |
| 20260506191920 | 7 | 18 | 4.8 | 9.7 | 0.00 | 0.08 | 0.08 | 99 | |
| 20260506190920 | 7 | 310 | 4.8 | 6.4 | 0.00 | 0.08 | 0.08 | 99 | |
| 20260506185920 | 7 | 339 | 3.2 | 3.2 | 0.00 | 0.08 | 0.08 | 99 | |
| 20260506184900 | 7 | 29 | 3.2 | 4.8 | 0.00 | 0.08 | 0.08 | 99 | |
| 20260506183900 | 7 | 41 | 4.8 | 8.0 | 0.00 | 0.08 | 0.08 | 99 | |
| 20260506182840 | 7 | 345 | 3.2 | 4.8 | 0.00 | 0.08 | 0.08 | 99 | |
| 20260506181840 | 7 | 36 | 6.4 | 6.4 | 0.00 | 0.08 | 0.08 | 99 | |
| 20260506180840 | 7 | 25 | 1.6 | 3.2 | 0.00 | 0.08 | 0.08 | 99 | |
| 20260506175820 | 7 | 19 | 4.8 | 6.4 | 0.00 | 0.08 | 0.08 | 99 | |
| 20260506174820 | 7 | 4 | 6.4 | 9.7 | 0.00 | 0.08 | 0.08 | 99 | |
| 20260506173800 | 7 | 59 | 11.3 | 14.5 | 0.00 | 0.08 | 0.08 | 99 | |
| 20260506172800 | 7 | 27 | 8.0 | 9.7 | 0.00 | 0.08 | 0.08 | 99 | |
| 20260506171800 | 8 | 31 | 6.4 | 8.0 | 0.00 | 0.08 | 0.08 | 99 | |
| 20260506170759 | 8 | 359 | 4.8 | 8.0 | 0.00 | 0.08 | 0.08 | 99 | |
| 20260506165800 | 8 | 27 | 3.2 | 9.7 | 0.00 | 0.08 | 0.08 | 99 | |
| 20260506164759 | 8 | 66 | 3.2 | 8.0 | 0.00 | 0.08 | 0.08 | 99 | |
| 20260506163800 | 9 | 4 | 1.6 | 4.8 | 0.00 | 0.08 | 0.08 | 99 | |
| 20260506162740 | 9 | 25 | 3.2 | 14.5 | 0.00 | 0.08 | 0.08 | 99 | |
| 20260506161740 | 9 | 7 | 6.4 | 11.3 | 0.00 | 0.08 | 0.08 | 99 | |
| 20260506160720 | 10 | 348 | 4.8 | 6.4 | 0.00 | 0.08 | 0.08 | 99 | |
| 20260506155720 | 10 | 56 | 9.7 | 8.0 | 0.00 | 0.08 | 0.08 | 99 | |
| 20260506154700 | 10 | 54 | 1.6 | 8.0 | 0.00 | 0.08 | 0.08 | 99 | |
| 20260506153700 | 10 | 56 | 3.2 | 4.8 | 0.00 | 0.08 | 0.08 | 99 | |
| 20260506152659 | 10 | 39 | 8.0 | 8.0 | 0.00 | 0.08 | 0.08 | 99 | |
| 20260506151640 | 10 | 63 | 3.2 | 8.0 | 0.00 | 0.08 | 0.08 | 99 | |
| 20260506150639 | 10 | 58 | 8.0 | 6.4 | 0.00 | 0.08 | 0.08 | 99 | |
| 20260506145619 | 11 | 44 | 1.6 | 4.8 | 0.00 | 0.08 | 0.08 | 99 | |
| 20260506144619 | 11 | 17 | 6.4 | 9.7 | 0.00 | 0.08 | 0.08 | 99 | |
| 20260506143559 | 12 | 90 | 4.8 | 6.4 | 0.00 | 0.10 | 0.08 | 99 | |
| 20260506142559 | 12 | 31 | 1.6 | 8.0 | 0.00 | 0.10 | 0.08 | 99 | |
| 20260506141559 | 12 | 53 | 3.2 | 4.8 | 0.00 | 0.13 | 0.08 | 99 | |
| 20260506140539 | 12 | 50 | 6.4 | 8.0 | 0.00 | 0.18 | 0.08 | 99 | |
| 20260506135539 | 12 | 63 | 4.8 | 6.4 | 0.00 | 0.20 | 0.08 | 99 | |
| 20260506134520 | 12 | 59 | 3.2 | 4.8 | 0.00 | 0.23 | 0.08 | 99 | |
| 20260506133519 | 12 | 90 | 1.6 | 6.4 | 0.00 | 0.25 | 0.08 | 99 | |
| 20260506132459 | 12 | 35 | 6.4 | 4.8 | 0.00 | 0.28 | 0.08 | 99 | |
| 20260506131459 | 12 | 64 | 4.8 | 6.4 | 0.00 | 0.30 | 0.08 | 99 | |
| 20260506130439 | 12 | 76 | 4.8 | 8.0 | 0.00 | 0.30 | 0.08 | 99 | |
| 20260506125439 | 12 | 7 | 3.2 | 4.8 | 0.00 | 0.30 | 0.08 | 99 | |
| 20260506124439 | 12 | 313 | 0.0 | 0.0 | 0.00 | 0.30 | 0.08 | 99 | |
| 20260506123419 | 12 | 66 | 4.8 | 6.4 | 0.00 | 0.30 | 0.08 | 99 | |
| 20260506122419 | 12 | 71 | 0.0 | 3.2 | 0.00 | 0.30 | 0.08 | 99 | |
| 20260506121359 | 12 | 21 | 1.6 | 3.2 | 0.00 | 0.28 | 0.05 | 99 | |
| 20260506120359 | 12 | 51 | 1.6 | 3.2 | 0.00 | 0.28 | 0.05 | 99 | |
| 20260506115339 | 12 | 73 | 1.6 | 3.2 | 0.00 | 0.28 | 0.05 | 99 | |
| 20260506114339 | 12 | 77 | 1.6 | 4.8 | 0.00 | 0.28 | 0.05 | 99 | |
| 20260506113319 | 13 | 10 | 0.0 | 1.6 | 0.00 | 0.28 | 0.05 | 99 | |
| 20260506112319 | 13 | 128 | 3.2 | 3.2 | 0.00 | 0.28 | 0.05 | 99 | |
| 20260506111259 | 13 | 155 | 1.6 | 3.2 | 0.00 | 0.28 | 0.05 | 99 | |
| 20260506110259 | 13 | 0 | 0.0 | 0.0 | 0.00 | 0.28 | 0.05 | 99 | |
| 20260506105259 | 13 | 152 | 4.8 | 6.4 | 0.00 | 0.30 | 0.05 | 99 | |
| 20260506104239 | 13 | 165 | 1.6 | 4.8 | 0.00 | 0.30 | 0.05 | 99 | |
| 20260506103239 | 12 | 170 | 1.6 | 3.2 | 0.00 | 0.33 | 0.05 | 99 | |
| 20260506102219 | 12 | 57 | 3.2 | 4.8 | 0.00 | 0.33 | 0.05 | 99 | |
| 20260506101219 | 12 | 150 | 4.8 | 6.4 | 0.00 | 0.33 | 0.05 | 99 | |
| 20260506100219 | 12 | 253 | 1.6 | 0.0 | 0.00 | 0.33 | 0.05 | 99 | |
| 20260506095159 | 12 | 127 | 3.2 | 6.4 | 0.00 | 0.33 | 0.05 | 99 | |
| 20260506094139 | 12 | 113 | 1.6 | 1.6 | 0.00 | 0.33 | 0.05 | 99 | |
| 20260506093139 | 12 | 159 | 3.2 | 4.8 | 0.00 | 0.33 | 0.05 | 99 | |
| 20260506092119 | 12 | 129 | 1.6 | 1.6 | 0.00 | 0.33 | 0.05 | 99 | |
| 20260506091119 | 12 | 223 | 1.6 | 3.2 | 0.00 | 0.33 | 0.05 | 99 | |
| 20260506090119 | 12 | 140 | 4.8 | 4.8 | 0.00 | 0.33 | 0.05 | 99 | |
| 20260506085059 | 12 | 180 | 3.2 | 6.4 | 0.00 | 0.33 | 0.05 | 99 | |
| 20260506084059 | 12 | 122 | 1.6 | 0.0 | 0.00 | 0.33 | 0.05 | 99 | |
| 20260506083039 | 11 | 142 | 4.8 | 3.2 | 0.00 | 0.33 | 0.05 | 99 | |
| 20260506082039 | 11 | 123 | 6.4 | 9.7 | 0.00 | 0.33 | 0.05 | 99 | |
| 20260506081039 | 12 | 156 | 1.6 | 3.2 | 0.00 | 0.33 | 0.05 | 99 | |
| 20260506073019 | 11 | 91 | 6.4 | 11.3 | 0.00 | 0.33 | 0.05 | 99 | |
| 20260506072019 | 11 | 71 | 9.7 | 9.7 | 0.00 | 0.33 | 0.05 | 99 | |
| 20260506070959 | 10 | 50 | 6.4 | 11.3 | 0.00 | 0.33 | 0.05 | 99 | |
| 20260506061919 | 10 | 83 | 6.4 | 8.0 | 0.00 | 0.33 | 0.05 | 99 | |
| 20260506060919 | 10 | 65 | 4.8 | 14.5 | 0.00 | 0.33 | 0.05 | 99 | |
| 20260506050838 | 8 | 36 | 8.0 | 14.5 | 0.00 | 0.33 | 0.05 | 99 | |
| 20260506044838 | 8 | 33 | 4.8 | 4.8 | 0.00 | 0.33 | 0.05 | 99 | |
| 20260506043838 | 8 | 65 | 4.8 | 8.0 | 0.00 | 0.33 | 0.05 | 99 | |
| 20260506042818 | 8 | 49 | 8.0 | 9.7 | 0.00 | 0.33 | 0.05 | 99 | |
| 20260506041818 | 8 | 36 | 3.2 | 11.3 | 0.00 | 0.33 | 0.05 | 99 | |
| 20260506040758 | 8 | 32 | 3.2 | 11.3 | 0.00 | 0.33 | 0.05 | 99 | |
| 20260506035738 | 8 | 59 | 1.6 | 3.2 | 0.00 | 0.33 | 0.05 | 99 | |
| 20260506035138 | 8 | 70 | 6.4 | 6.4 | 0.00 | 0.33 | 0.05 | 99 | |
| 20260506034138 | 8 | 73 | 4.8 | 6.4 | 0.00 | 0.33 | 0.05 | 99 | |
| 20260506033118 | 8 | 83 | 9.7 | 12.9 | 0.00 | 0.33 | 0.05 | 99 | |
| 20260506032118 | 8 | 74 | 4.8 | 6.4 | 0.00 | 0.33 | 0.05 | 99 | |
| 20260506031118 | 8 | 54 | 6.4 | 11.3 | 0.00 | 0.33 | 0.05 | 99 | |
| 20260506030118 | 8 | 48 | 6.4 | 11.3 | 0.00 | 0.33 | 0.05 | 99 | |
| 20260506025118 | 8 | 62 | 1.6 | 8.0 | 0.00 | 0.33 | 0.05 | 99 | |
| 20260506024118 | 8 | 90 | 4.8 | 6.4 | 0.00 | 0.33 | 0.05 | 99 | |
| 20260506023118 | 8 | 15 | 3.2 | 6.4 | 0.00 | 0.33 | 0.05 | 99 | |
| 20260506022058 | 8 | 88 | 6.4 | 9.7 | 0.00 | 0.33 | 0.05 | 99 |